TIME,DELAY(SENSOR),PRES,T(CTD),SAL,OXYGEN,RAWTEMP,T(OPTODE),TCPHASE,FLUOR,BETA(BETA700),BETA(BETA412),BETA(BETA440),CDOM,C(CSC),ED(ED411.90),ED(ED443.80),ED(ED489.40),ED(ED554.70),LU(LU412.20),LU(LU443.80),LU(LU489.40),LU(LU555.00),COMP,TILTX,TILTX(TILTY),CHECK
1346425683,5804,496.9500122070312500,17.8810005187988280,36.5312995910644500,234.6954956054687500,173.7552032470703000,17.8802890777587900,31.5742301940917970,50,107,96,83,66,15434,2147483958,2147763968,2147557485,2147792475,2147317092,2147475666,2147706816,2148244525,3339,7,13,55829
1346425800,5803,485.5299987792969000,17.9190006256103500,36.5388984680175800,235.6282958984375000,172.1477966308593800,17.9292297363281250,31.5077095031738280,50,105,96,83,66,15433,2147482541,2147766381,2147560566,2147795072,2147310235,2147475410,2147709174,2148245248,536,7,13,27198
1346425915,5805,474.2999877929687500,17.9948005676269530,36.5536003112793000,237.2592010498047000,170.1468048095703000,17.9901599884033200,31.4029693603515620,50,105,98,83,65,15434,2147484818,2147765604,2147559149,2147795638,2147314532,2147478592,2147706139,2148242404,1093,6,13,22653
1346426030,5801,463.0100097656250000,18.0272006988525400,36.5574989318847660,236.9667968750000000,168.9886016845703000,18.0254306793212900,31.4011497497558600,50,106,97,83,66,15433,2147488338,2147765979,2147556361,2147794331,2147314852,2147479149,2147706514,2148243894,1409,7,12,60261
1346426147,5804,451.3699951171875000,18.0732994079589840,36.5652008056640600,236.9664001464843800,167.3993988037109400,18.0738201141357420,31.3799705505371100,49,107,98,83,65,15432,2147486646,2147764653,2147557659,2147795108,2147302829,2147476781,2147704356,2148241801,2271,7,13,24315
1346426262,5804,439.7900085449219000,18.1298007965087900,36.5741996765136700,237.4615936279297000,165.6443939208984400,18.1272792816162100,31.3327903747558600,50,108,98,83,67,15431,2147488484,2147765668,2147557504,2147792082,2147308251,2147477558,2147706368,2148241691,2625,7,13,14815
1346426365,5803,429.4400024414062500,18.1641998291015620,36.5774002075195300,237.1938018798828000,164.6134948730468800,18.1586799621582030,31.3315906524658200,50,107,98,83,66,15432,2147484827,2147764781,2147557952,2147793682,2147302866,2147480201,2147705115,2148241828,3549,7,12,12883
1346426483,5805,419.0599975585937500,18.2134990692138670,36.5844993591308600,237.1822052001953000,162.8336944580078000,18.2128906250000000,31.3085899353027340,50,106,96,84,67,15432,2147486921,2147761206,2147558052,2147792850,2147311945,2147482788,2147703332,2148241243,527,7,13,42813
1346426646,5805,407.5599975585937500,18.2803001403808600,36.5894012451171900,235.8551940917968800,160.5531005859375000,18.2823696136474600,31.3411197662353500,50,109,97,84,66,15430,2147490587,2147763337,2147555757,2147792466,2147309778,2147479030,2147704274,2148240137,966,7,12,844
1346426790,5803,396.1900024414062500,18.3460006713867200,36.5951995849609400,234.8193969726562500,158.5354003906250000,18.3438396453857420,31.3635902404785160,50,107,96,83,66,15427,2147488704,2147762706,2147556736,2147793316,2147303076,2147478966,2147700288,2148240566,1141,7,13,3818
1346426905,5803,385.3699951171875000,18.4109992980957030,36.6040000915527340,234.2008056640625000,156.4281005859375000,18.4080600738525400,31.3653202056884770,49,108,97,84,68,15426,2147487972,2147762404,2147556004,2147793691,2147303542,2147479451,2147701394,2148244809,1836,7,13,29364
1346427020,5801,374.4100036621094000,18.4421005249023440,36.6058998107910160,233.5225067138672000,155.3598937988281200,18.4406108856201170,31.3836402893066400,50,108,98,84,65,15426,2147483940,2147760027,2147558043,2147792932,2147306669,2147480018,2147703424,2148240969,2299,7,12,38316
1346427137,5804,363.5000000000000000,18.5212001800537100,36.6096992492675800,231.8578033447265600,152.7595062255859400,18.5198707580566400,31.4296493530273440,50,108,98,85,66,15430,2147490121,2147763712,2147558948,2147792301,2147306038,2147482285,2147701732,2148238646,3367,7,13,43002
1346427264,5805,352.2200012207031000,18.5935993194580080,36.6167984008789060,230.1782989501953000,150.1645050048828000,18.5989704132080080,31.4769096374511720,50,107,98,82,67,15427,2147488155,2147767122,2147557622,2147791588,2147304649,2147481691,2147703698,2148238226,208,7,12,52685
1346427393,5804,341.4599914550781000,18.7154998779296880,36.6235008239746100,228.2826995849609400,146.5485992431640600,18.7092208862304700,31.5217399597167970,50,109,97,83,67,15426,2147488283,2147762203,2147559561,2147790683,2147308608,2147479296,2147706368,2148238592,1078,7,12,14530
1346427532,5801,330.6300048828125000,18.7600994110107420,36.6234016418457000,227.1661071777343800,144.7987060546875000,18.7625904083251950,31.5537109375000000,50,108,98,84,66,15425,2147492617,2147761819,2147561216,2147791716,2147308571,2147480640,2147703478,2148237430,1270,7,13,43201
1346427716,5802,316.7900085449219000,18.9479007720947270,36.6290016174316400,227.5912933349609400,138.7039947509765600,18.9484996795654300,31.4513607025146500,50,107,97,83,68,15426,2147486784,2147763593,2147562523,2147792969,2147306020,2147482029,2147704246,2148238052,2568,7,13,4039
1346427842,5803,305.2699890136719000,19.0541992187500000,36.6180992126464840,229.8421020507812500,134.6739959716797000,19.0714797973632800,31.2865104675292970,50,105,97,82,66,15427,2147491620,2147765513,2147568192,2147791241,2147305289,2147482395,2147708297,2148238290,285,7,12,55153
1346427957,5804,295.2799987792969000,19.0821990966796880,36.5998001098632800,233.6737976074218800,134.3825988769531200,19.0803794860839840,31.0969104766845700,50,106,97,83,66,15428,2147492114,2147763328,2147561554,2147789348,2147302628,2147481298,2147705225,2148239515,2843,8,13,46892
1346428110,5806,282.5799865722656000,19.3633995056152340,36.6455001831054700,231.8556060791015600,125.2147979736328100,19.3603000640869140,31.0632190704345700,50,108,98,83,66,15428,2147493421,2147763766,2147577462,2147792237,2147300297,2147484781,2147711168,2148241581,586,8,12,22806
1346428225,5804,271.3999938964844000,19.3320999145507800,36.6095008850097660,235.6336059570312500,126.0670013427734400,19.3342704772949220,30.8936901092529300,50,108,98,84,65,15427,2147494253,2147765037,2147583570,2147790582,2147312173,2147490486,2147712630,2148236763,1022,8,13,46030
1346428342,5803,259.7799987792969000,19.5375995635986330,36.6543998718261700,229.2133026123047000,119.2459030151367200,19.5426692962646500,31.1126995086669920,51,109,98,84,65,15424,2147494774,2147768192,2147594880,2147786761,2147307026,2147490066,2147724763,2148240402,1614,7,12,16786
1346428457,5804,248.7500000000000000,19.5683994293212900,36.6428985595703100,228.6587982177734400,118.5429000854492200,19.5641498565673830,31.1303691864013670,51,109,97,85,65,15424,2147493394,2147774656,2147610157,2147789952,2147313810,2147495241,2147731538,2148239140,2260,7,12,14240
1346428572,5805,238.1900024414062500,19.5405998229980470,36.6134986877441400,232.6923065185547000,119.8133010864257800,19.5253295898437500,30.9515399932861330,53,111,97,84,64,15423,2147494546,2147783113,2147631122,2147790957,2147314386,2147496813,2147742290,2148241033,2612,8,12,52914
1346428701,5805,227.0899963378906200,19.5932006835937500,36.5946998596191400,245.1916046142578000,117.5748977661132800,19.5937404632568360,30.3404502868652340,56,111,98,85,65,15417,2147493522,2147789970,2147661476,2147788864,2147315538,2147502363,2147756096,2148240475,67,7,12,32455
1346428828,5802,216.4900054931640600,19.7921009063720700,36.6142997741699200,247.7554931640625000,110.5488967895507800,19.8085708618164060,30.1346702575683600,60,112,98,83,65,15411,2147496219,2147805476,2147706404,2147788608,2147313261,2147509056,2147779657,2148237732,356,7,12,54828
1346428957,5804,205.2500000000000000,19.9825992584228500,36.6180992126464840,251.1526031494140600,103.2024002075195300,20.0333595275878900,29.8901195526123050,59,113,99,84,66,15405,2147503405,2147828352,2147774665,2147791597,2147316397,2147522925,2147809728,2148240192,1242,7,13,24026
1346429048,5805,197.5899963378906200,20.2488994598388670,36.6693992614746100,239.9306030273437500,96.4976272583007800,20.2386608123779300,30.3066406250000000,54,111,98,84,65,15424,2147508544,2147844982,2147831250,2147789238,2147318683,2147532598,2147842770,2148241581,1119,7,13,34446
1346429103,5803,192.9600067138672000,20.3134002685546880,36.6669006347656250,247.4622039794922000,94.0276412963867200,20.3143291473388670,29.9346809387207030,58,111,98,85,65,15414,2147510006,2147863414,2147879753,2147786249,2147315026,2147544082,2147860781,2148243584,1132,8,12,53952
1346429158,5803,188.3800048828125000,20.3969993591308600,36.6753005981445300,250.8710021972656200,90.8967437744140600,20.4102802276611330,29.7447490692138670,59,110,99,84,65,15414,2147513609,2147886198,2147931200,2147787090,2147321069,2147556452,2147886692,2148242377,1580,7,12,64462
1346429213,5804,183.8800048828125000,20.5757007598876950,36.6927986145019500,251.4476928710937500,85.6505889892578100,20.5711307525634770,29.6526508331298830,57,112,98,85,65,15410,2147519433,2147908141,2147988754,2147788672,2147322386,2147561929,2147916214,2148246308,2361,7,12,8884
1346429288,5805,178.3899993896484400,20.6159000396728500,36.6526985168457000,259.5545959472656000,83.8676376342773400,20.6258201599121100,29.2849006652832030,63,113,100,87,64,15396,2147528557,2147942628,2148078656,2147788534,2147329307,2147584576,2147960420,2148247680,2804,7,12,8307
1346429343,5804,174.9299926757812500,20.7019996643066400,36.6542015075683600,258.9884948730469000,81.2682113647461000,20.7055702209472660,29.2755298614501950,65,115,99,86,65,15394,2147542098,2147976018,2148154230,2147788105,2147328301,2147593874,2147991350,2148249344,2245,7,12,54640
1346429410,5803,170.7799987792968800,20.7674007415771500,36.6562004089355500,258.1022033691406000,78.4574432373046900,20.7918395996093750,29.2772998809814450,65,115,99,86,66,15392,2147554112,2148025426,2148265216,2147788544,2147330532,2147622454,2148037942,2148253906,2284,7,12,3163
1346429465,5802,167.4499969482422000,20.9349002838134770,36.6670989990234400,257.0322875976562500,74.3267364501953100,20.9186706542968750,29.2701301574707030,72,115,99,85,65,15381,2147564754,2148067200,2148363126,2147788882,2147339702,2147640027,2148080530,2148256649,1531,7,12,52263
1346429544,5803,163.2200012207031200,21.0858001708984380,36.6950988769531250,248.4252929687500000,68.8146362304687500,21.0880203247070300,29.5702705383300780,88,122,98,85,65,15383,2147592448,2148136521,2148516443,2147790208,2147348562,2147674715,2148145060,2148259520,1011,7,12,16423
1346429622,5805,159.9499969482422000,21.1907005310058600,36.6864013671875000,245.7342071533203000,66.2352828979492200,21.1673107147216800,29.6561698913574220,79,119,100,86,65,15380,2147607533,2148193792,2148634569,2147789275,2147358747,2147689572,2148195346,2148264493,817,8,12,64909
1346429785,5800,156.3300018310547000,21.4307003021240230,36.7160987854003900,249.6772003173828000,60.0240402221679700,21.3583602905273440,29.4043407440185550,71,119,100,85,64,15374,2147629586,2148263387,2148776210,2147786925,2147365577,2147730724,2148258898,2148271241,1206,7,12,24448
1346429980,5802,151.9199981689453000,21.5482997894287100,36.6691017150878900,250.0782928466797000,54.2406997680664060,21.5363998413085940,29.3138294219970700,73,116,100,86,63,15387,2147669769,2148358107,2148978761,2147789403,2147383826,2147785929,2148362852,2148274322,777,7,12,13248
1346430131,5804,148.4499969482422000,21.8066005706787100,36.6581001281738300,245.2406005859375000,46.2970581054687500,21.7811794281005860,29.4252204895019530,80,118,99,85,65,15392,2147699035,2148434660,2149148854,2147790281,2147396086,2147832356,2148448018,2148278272,377,7,12,19731
1346430377,5804,144.0899963378906200,22.3957996368408200,36.7304000854492200,234.0688934326172000,27.6929302215576170,22.3556308746337900,29.6965293884277340,80,121,99,86,64,15390,2147762212,2148552566,2149361344,2147789504,2147420717,2147886582,2148539364,2148287680,2221,8,12,46228
1346430492,5805,139.9900054931640600,22.5473003387451170,36.7332992553710940,228.2951965332031200,22.4478492736816400,22.5178909301757800,29.9024295806884770,86,120,97,85,64,15385,2147855296,2148783460,2149856009,2147793106,2147457097,2148004781,2148783972,2148302482,1553,8,12,26816
1346430594,5801,135.1499938964843800,22.7982997894287100,36.7411994934082000,225.5626068115234400,14.1378698348999020,22.7752799987792970,29.9280109405517580,88,122,99,86,64,15383,2147957677,2149024530,2150309906,2147799634,2147500013,2148125028,2148986953,2148317613,1688,8,12,37153
1346430673,5805,131.5500030517578000,22.8145999908447270,36.6875000000000000,228.2761993408203000,13.0539798736572270,22.8088798522949220,29.7839298248291000,91,123,98,88,64,15379,2148053485,2149215561,2150673078,2147804717,2147540928,2148216457,2149143561,2148326802,1900,7,12,23406
1346430800,5805,128.4499969482422000,22.9824008941650400,36.6948013305664060,230.3303985595703000,8.0963726043701170,22.9626293182373050,29.6235008239746100,90,123,98,86,65,15380,2148153014,2149398592,2151039003,2147809435,2147582262,2148304832,2149307419,2148340480,670,8,12,52851
1346430951,5805,123.7600021362304700,23.1523990631103500,36.6318016052246100,232.4588012695312500,2.3002529144287110,23.1425704956054700,29.4505996704101560,92,122,98,84,64,15374,2148339958,2149730331,2151715108,2147822793,2147662052,2148473764,2149605558,2148360859,314,7,12,54613
1346431042,5805,119.3899993896484400,23.3946990966796880,36.6106986999511700,234.6000061035156200,-3.3448040485382080,23.3180007934570300,29.2804508209228500,97,126,100,87,63,15369,2148548873,2150151680,2152508891,2147840786,2147762066,2148680173,2149959753,2148389549,453,8,12,19572
1346431133,5804,116.0500030517578100,23.6026000976562500,36.6166992187500000,232.4398956298828000,-11.4204301834106450,23.5692996978759770,29.2789802551269530,107,128,100,86,65,15361,2148759414,2150513298,2153162194,2147853184,2147849600,2148853805,2150231478,2148410048,814,8,12,38296
1346431272,5804,112.0000000000000000,23.9281997680664060,36.5625991821289060,231.9891967773437500,-22.9328098297119140,23.9282302856445300,29.1555805206298830,121,128,99,87,63,15350,2149183817,2151260918,2154396571,2147881380,2148016210,2149165312,2150728841,2148455305,695,7,12,40477
1346431626,5802,108.1800003051757800,24.2686004638671880,36.4990997314453100,231.3589935302734400,-33.8100585937500000,24.2681293487548830,29.0488491058349600,137,132,100,87,65,15327,2149622509,2152026550,2155798957,2147912969,2148151076,2149381101,2151163410,2148496256,1684,7,12,48579
1346431753,5805,104.3600006103515600,24.4923000335693360,36.4864997863769500,231.7109985351562500,-40.2751388549804700,24.4705295562744140,28.9521293640136720,138,133,99,88,64,15331,2150212909,2153031625,2157429238,2147956653,2148360054,2149742610,2151752054,2148552118,1563,8,12,40697
1346431928,5803,100.5400009155273400,24.8819007873535160,36.4930992126464840,229.4969024658203000,-52.4128189086914060,24.8512802124023440,28.9037208557128900,136,140,102,88,65,15308,2151113782,2154447323,2159492635,2148010523,2148646774,2150199789,2152462912,2148625371,1094,8,12,33577
1346431995,5802,99.5500030517578100,24.9239006042480470,36.4970016479492200,228.9098968505859400,-53.6990089416503900,24.8916893005371100,28.9150009155273440,137,136,99,89,66,15309,2151502628,2155018614,2160277888,2148034029,2148749540,2150360850,2152698870,2148652745,1413,8,12,38857
1346432133,5804,96.6699981689453100,25.2164993286132800,36.4996986389160160,224.3498992919922000,-63.6994895935058600,25.2062797546386720,29.0056304931640620,146,144,102,89,65,15283,2152714432,2156792347,2162653266,2148102564,2149075648,2150858788,2153437824,2148733156,2173,8,12,40988
1346432188,5803,94.7200012207031200,25.2865009307861330,36.4954986572265600,223.4756927490234400,-66.0012130737304700,25.2787895202636720,29.0187301635742200,145,141,102,90,65,15278,2153622171,2158127350,2164328932,2148157293,2149322870,2151233069,2154028562,2148798363,2012,8,12,38215
1346432243,5803,92.6299972534179700,25.3225994110107420,36.4824981689453100,223.5688934326172000,-67.0758590698242200,25.3126602172851560,29.0008201599121100,148,142,101,89,66,15262,2154745270,2159723291,2166486665,2148226697,2149666048,2151742262,2154769398,2148888941,1515,8,12,42212
1346432298,5803,90.5000000000000000,25.2259998321533200,36.4216995239257800,227.1721954345703000,-64.1246414184570300,25.2196693420410160,28.8666801452636720,146,141,101,88,64,15275,2155978788,2161450112,2168650477,2148305920,2150064758,2152324196,2155585590,2148980205,1432,8,12,37807
1346432353,5803,88.7799987792968800,25.4892997741699220,36.3919982910156250,229.2048034667968800,-71.6751937866211000,25.4577102661132800,28.6779594421386720,132,136,101,89,62,15291,2157111268,2163043181,2170591552,2148379401,2150496649,2152920237,2156340873,2149069906,1170,8,12,15493
1346432443,5805,86.9800033569336000,25.5224990844726560,36.3825988769531250,231.4019012451172000,-73.8438491821289000,25.5261592864990230,28.5498199462890620,122,139,101,89,62,15284,2158765257,2165326253,2173302336,2148477915,2151137152,2153816146,2157446098,2149192320,897,7,12,23105
1346432510,5805,85.0599975585937500,25.6287994384765620,36.3694992065429700,232.2326049804687500,-76.7749023437500000,25.6187191009521500,28.4755802154541000,119,136,100,88,62,15287,2160565641,2167714413,2176052388,2148596361,2151863451,2154798299,2158646171,2149329389,801,8,12,58406
1346432589,5803,83.1999969482421900,25.7947006225585940,36.3532981872558600,232.4777984619140600,-81.5724029541015600,25.7703800201416000,28.4051208496093750,110,140,100,88,61,15298,2162461357,2170160987,2178683492,2148724754,2152607296,2155780224,2159811154,2149463808,195,8,12,55017
1346432751,5802,81.3199996948242200,26.0139999389648440,36.3274993896484400,232.4342041015625000,-89.0766067504882800,26.0079593658447270,28.3146095275878900,105,139,100,89,61,15294,2164816768,2173123830,2181905700,2148877595,2153649764,2157152557,2161426404,2149641901,437,8,12,54535
1346432830,5801,78.7300033569336000,26.0930995941162100,36.3117980957031250,232.5343017578125000,-91.7445983886718800,26.0925292968750000,28.2774200439453120,106,136,101,91,60,15284,2168613412,2177765622,2186789888,2149161828,2155066038,2159000969,2163580726,2149879158,3234,8,12,25582
1346432885,5804,77.0400009155273400,26.2763004302978500,36.2835998535156250,232.8159942626953000,-97.1463470458984400,26.2639503479003900,28.1981391906738280,103,143,101,91,62,15278,2171166198,2180914294,2190153426,2149344402,2156166171,2160426102,2165205339,2150072301,3141,7,12,5718
1346432976,5803,75.9300003051757800,26.4307994842529300,36.2620010375976560,233.5337982177734400,-102.4087982177734400,26.4311695098876950,28.1011600494384770,106,141,102,91,61,15277,2172106861,2181902573,2190967131,2149423634,2156748635,2161437238,2166505490,2150124233,2801,8,12,56734
1346433163,5802,73.1399993896484400,26.6735992431640620,36.2421989440918000,235.2613067626953000,-109.7966003417968800,26.6663208007812500,27.9332199096679700,97,141,102,91,61,15264,2177653997,2188633417,2198227693,2149894674,2159785280,2164806582,2169977024,2150619373,1459,8,12,51678
1346433242,5804,71.1800003051757800,26.7264003753662100,36.2304992675781250,235.3800964355468800,-111.3352966308593800,26.7153491973876950,27.9092006683349600,93,146,103,92,59,15248,2181575899,2193252333,2203093997,2150277997,2161781019,2167239661,2172552228,2150925723,1434,8,12,345
1346433356,5802,68.7500000000000000,26.8554992675781250,36.2131996154785160,236.0908966064453000,-115.5091018676757800,26.8484706878662100,27.8266391754150400,88,151,103,93,57,15251,2170697051,2176764964,2180223972,2149216731,2157823634,2161134116,2163757449,2149942189,1988,8,12,11133
1346433411,5802,67.0400009155273400,26.9470005035400400,36.1987991333007800,236.5993957519531200,-118.3422012329101600,26.9389095306396500,27.7695999145507800,88,146,103,92,61,15256,2174934582,2181314898,2184377910,2149468854,2160057499,2163553490,2166102720,2150192941,1482,8,12,28478
1346433478,5802,65.0899963378906200,27.1026000976562500,36.1637001037597660,237.4441986083984400,-122.5201034545898400,27.0724105834960940,27.6814308166503900,86,149,103,91,62,15258,2194059126,2207083456,2216350537,2151537289,2169284635,2175847670,2180699172,2151918866,1027,8,12,13955
1346433569,5802,63.5900001525878900,27.1564998626709000,36.1582984924316400,238.0399017333984400,-124.9949035644531200,27.1515502929687500,27.6252708435058600,86,145,106,90,60,15257,2198988370,2212077421,2220738011,2151929910,2172411894,2179384402,2184186285,2152308809,1276,8,12,65493
1346433683,5803,61.3400001525878900,27.4559001922607420,36.1077995300293000,239.1336975097656200,-133.7859954833984400,27.4331607818603500,27.4706802368164060,81,148,103,92,62,15245,2206948891,2220083337,2227680850,2152711625,2177121892,2184338203,2188570843,2152860187,2361,8,12,21697
1346433738,5802,60.3800010681152340,27.4948005676269530,36.1029014587402340,240.1833953857422000,-135.4237976074218800,27.4857006072998050,27.4054298400878900,78,148,102,92,60,15199,2210006052,2223311917,2230341568,2152995529,2179130934,2186797531,2191187584,2153026989,3272,8,11,46144
1346433877,5802,58.6800003051757800,27.5914993286132800,36.0975990295410160,241.0482025146484400,-138.0525970458984400,27.5700893402099600,27.3362693786621100,79,147,106,95,58,15248,2217199972,2230662710,2237427410,2153850349,2183430125,2191022144,2194161947,2153573750,2831,8,11,64303
1346434003,5805,55.8699989318847660,27.6587009429931640,36.1024017333984400,240.6853027343750000,-140.9830932617187500,27.6642303466796880,27.3164005279541000,73,145,102,92,60,15250,2229158884,2242227099,2247456502,2155238409,2193035812,2201030427,2202681088,2154711433,259,8,12,62433
1346434145,5804,52.2500000000000000,28.0897006988525400,36.0061988830566400,239.8244018554687500,-154.1835937500000000,28.0893096923828120,27.1935195922851560,71,146,105,92,58,15255,2244242614,2257202294,2261881974,2157545097,2205704338,2213968585,2213820553,2156297846,889,6,11,39062
1346434179,5803,51.8600006103515600,28.1767005920410160,35.9860992431640600,238.4163055419922000,-156.6840972900390600,28.1700191497802730,27.2240905761718750,70,147,103,94,59,15263,2245863634,2259266157,2264384585,2157856347,2207014354,2215299136,2214874806,2156456155,892,7,11,28688
1346434352,5800,49.7700004577636700,28.2866001129150400,35.9541015625000000,233.8860931396484400,-160.5393066406250000,28.2945709228515620,27.3755893707275400,63,141,102,91,57,15268,2195390985,2197152466,2193454491,2151276891,2181175094,2183206107,2180185984,2151898349,670,8,11,1909
1346434457,5802,47.8699989318847660,28.3012008666992200,35.9514007568359400,232.5886993408203000,-161.2747955322265600,28.3183498382568360,27.4242496490478500,62,137,100,91,57,15271,2258085878,2272244260,2277818368,2160970304,2220721837,2227900571,2224382326,2157934774,203,8,11,19058
1346434610,5802,45.5000000000000000,28.3108005523681640,35.9472999572753900,231.7736053466797000,-161.4375000000000000,28.3236103057861330,27.4586601257324220,61,137,101,92,57,15273,2262714276,2275889737,2281118006,2163088475,2235426688,2241061156,2233534838,2159219666,187,8,11,49478
1346434655,5806,43.5900001525878900,28.3115005493164060,35.9476013183593750,231.6450958251953000,-161.4483032226562500,28.3239593505859380,27.4642295837402340,59,137,102,89,59,15276,2269967899,2282793380,2287808640,2165287789,2245620653,2250467958,2240620571,2160356827,17,8,11,42476
1346434700,5802,41.4199981689453100,28.3122005462646500,35.9469985961914060,231.6163940429687500,-161.4797058105468800,28.3249702453613280,27.4651508331298830,60,137,99,90,58,15270,2281871616,2296047460,2302996269,2169378413,2258399113,2262546011,2250076909,2161966555,3583,8,12,40562
1346434745,5803,39.3300018310546900,28.3150005340576170,35.9460983276367200,231.6988067626953000,-161.5690002441406200,28.3278598785400400,27.4604701995849600,59,137,100,91,55,15280,2285930614,2299359040,2306118381,2171519122,2270154029,2273053184,2258005696,2163427318,3570,8,11,55012